Loading…
Loading…
Loading…
Loading…
Loading parcel record…
Hamilton, NJ·Mercer County
Owner email, phone, and authorized agent are available on Pro.
| Date | Price | Book / Page | Verified by |
|---|---|---|---|
| 11/15/2019 | $700,000 | — | Recorded deed |
Activity captured from the county clerk's daily feed. Includes deeds, mortgages, and other recorded filings.
| Date | Type | Grantor | Grantee | Book / Page | Instrument |
|---|---|---|---|---|---|
| 2026-05-05 | NOTICE OF SETTLEMENT | — |
| — |
| 1627 / 1429 |
| 2026018693 |
| 2026-04-29 | NOS | — | — | 1627 / 1077 | 2026018062 |
| 2026-04-29 | DEED | — | — | 6624 / 612 | 2026017889 |
| 2026-04-29 | RUC | — | — | 261 / 328 | 2026017888 |
| 2026-04-29 | RUC | — | — | 261 / 323 | 2026017887 |
| 2026-04-29 | REL | — | — | 730 / 506 | 2026017886 |
| 2026-04-29 | REL | — | — | 730 / 501 | 2026017885 |
| 2026-04-22 | NOS | — | — | 1627 / 433 | 2026017163 |
| 2026-04-22 | MTG | — | — | 12043 / 1806 | 2026017070 |
| 2026-04-14 | DISCHARGE OF MORTGAGE | — | — | 1694 / 371 | 2026015770 |
| 2026-04-13 | ASSIGNMENT OF RENTS/LEASES | — | — | 12041 / 498 | 2026015649 |
| 2026-04-13 | RELEASE OF MORTGAGE | — | — | 730 / 293 | 2026015648 |
| 2026-04-08 | MORTGAGE | — | — | 12040 / 979 | 2026015141 |
| 2026-04-08 | MORTGAGE | — | — | 12040 / 805 | 2026015074 |
| 2026-04-02 | UCC AMENDMENT | — | — | 260 / 1772 | 2026014330 |
| 2026-04-02 | UCC AMENDMENT | — | — | 260 / 1768 | 2026014329 |
| 2026-04-02 | RELEASE OF MORTGAGE | — | — | 730 / 201 | 2026014328 |
| 2026-04-02 | RELEASE OF MORTGAGE | — | — | 730 / 195 | 2026014327 |
| 2026-04-02 | DEED | — | — | 6622 / 80 | 2026014326 |
| 2026-04-01 | DEED | — | — | 6621 / 1769 | 2026013961 |
| 2026-04-01 | UCC PARTIAL RELEASE | — | — | 260 / 1691 | 2026013959 |
| 2026-04-01 | UCC PARTIAL RELEASE | — | — | 260 / 1686 | 2026013958 |
| 2026-04-01 | RELEASE OF MORTGAGE | — | — | 730 / 131 | 2026013957 |
| 2026-04-01 | RELEASE OF MORTGAGE | — | — | 730 / 126 | 2026013956 |
| 2026-03-31 | NOTICE OF SETTLEMENT | — | — | 1626 / 281 | 2026013760 |
| 2026-03-31 | NOTICE OF SETTLEMENT | — | — | 1626 / 267 | 2026013746 |
| 2026-03-26 | NOTICE OF SETTLEMENT | — | — | 1625 / 1993 | 2026013250 |
| 2026-03-20 | NOTICE OF SETTLEMENT | — | — | 1625 / 1810 | 2026012704 |
| 2026-03-20 | NOTICE OF SETTLEMENT | — | — | 1625 / 1792 | 2026012632 |
| 2026-03-19 | NOTICE OF SETTLEMENT | — | — | 1625 / 1659 | 2026012384 |